• In Hungary
  • List of Countries
  • For 7 days
  • Water Temperature
  • Satellite Maps
  • Weather Map
  • News
  • Weather Widgets
  • user-avatar
    Login

    Hourly Weather Rejowiec

    Today, 17 November, Friday

    Time Temperature Precipitation Wind Pressure Humidity
    00:00 +1°C° 0 mm 2 mps 745 mmHg 90%
    01:00 +1°C° 0 mm 2 mps 744 mmHg 90%
    02:00 +1°C° 0 mm 2 mps 744 mmHg 89%
    03:00 +2°C° 0 mm 2 mps 744 mmHg 87%
    04:00 +3°C° 0 mm 1 mps 744 mmHg 86%
    05:00 +2°C° 0.1 mm 2 mps 744 mmHg 86%
    06:00 +2°C° 0.1 mm 2 mps 744 mmHg 87%
    07:00 +4°C° 0 mm 1 mps 744 mmHg 88%
    08:00 +3°C° 0 mm 2 mps 744 mmHg 86%
    09:00 +4°C° 0 mm 2 mps 744 mmHg 84%
    10:00 +5°C° 0 mm 2 mps 744 mmHg 82%
    11:00 +5°C° 0 mm 2 mps 744 mmHg 80%
    12:00 +5°C° 0 mm 2 mps 744 mmHg 79%
    13:00 +4°C° 0 mm 3 mps 744 mmHg 79%
    14:00 +4°C° 0 mm 3 mps 744 mmHg 81%
    15:00 +5°C° 0 mm 2 mps 744 mmHg 82%
    16:00 +4°C° 0 mm 2 mps 744 mmHg 84%
    17:00 +4°C° 0 mm 2 mps 744 mmHg 86%
    18:00 +4°C° 0 mm 2 mps 744 mmHg 88%
    19:00 +4°C° 0 mm 2 mps 744 mmHg 91%
    20:00 +4°C° 0.1 mm 2 mps 744 mmHg 91%
    21:00 +4°C° 0.1 mm 2 mps 744 mmHg 92%
    22:00 +4°C° 0.1 mm 2 mps 744 mmHg 93%
    23:00 +4°C° 0.1 mm 2 mps 744 mmHg 93%

    Tomorrow, 18 November, Saturday

    Time Temperature Precipitation Wind Pressure Humidity
    00:00 +3°C° 0.1 mm 2 mps 744 mmHg 94%
    01:00 +3°C° 0.1 mm 2 mps 743 mmHg 94%
    02:00 +3°C° 0 mm 2 mps 743 mmHg 95%
    03:00 +2°C° 0 mm 2 mps 743 mmHg 95%
    04:00 +2°C° 0 mm 2 mps 742 mmHg 95%
    05:00 +2°C° 0 mm 1 mps 742 mmHg 95%
    06:00 +2°C° 0 mm 1 mps 742 mmHg 95%
    07:00 +2°C° 0 mm 1 mps 742 mmHg 95%
    08:00 +3°C° 0 mm 1 mps 742 mmHg 90%
    09:00 +2°C° 0 mm 2 mps 742 mmHg 86%
    10:00 +3°C° 0 mm 2 mps 741 mmHg 81%
    11:00 +4°C° 0 mm 2 mps 741 mmHg 77%
    12:00 +3°C° 0 mm 3 mps 740 mmHg 73%
    13:00 +4°C° 0 mm 3 mps 740 mmHg 68%
    14:00 +3°C° 0 mm 3 mps 739 mmHg 71%
    15:00 +2°C° 0 mm 3 mps 739 mmHg 73%
    16:00 +2°C° 0 mm 3 mps 738 mmHg 75%
    17:00 +1°C° 0 mm 3 mps 738 mmHg 77%
    18:00 +1°C° 0 mm 3 mps 737 mmHg 78%
    19:00 0°C° 0 mm 4 mps 737 mmHg 80%
    20:00 0°C° 0 mm 4 mps 737 mmHg 79%
    21:00 0°C° 0 mm 4 mps 736 mmHg 79%
    22:00 0°C° 0 mm 5 mps 736 mmHg 78%
    23:00 0°C° 0.1 mm 5 mps 736 mmHg 79%

    Day after tomorrow, 19 November, Sunday

    Time Temperature Precipitation Wind Pressure Humidity
    00:00 0°C° 0.1 mm 5 mps 735 mmHg 79%
    01:00 0°C° 0.1 mm 5 mps 735 mmHg 80%
    02:00 0°C° 0.1 mm 5 mps 735 mmHg 81%
    03:00 0°C° 0.1 mm 5 mps 735 mmHg 82%
    04:00 0°C° 0.1 mm 5 mps 734 mmHg 83%
    05:00 0°C° 0 mm 5 mps 734 mmHg 85%
    06:00 -1°C° 0 mm 5 mps 734 mmHg 86%
    07:00 -1°C° 0 mm 4 mps 734 mmHg 88%
    08:00 0°C° 0 mm 5 mps 734 mmHg 82%
    09:00 +1°C° 0 mm 6 mps 734 mmHg 77%
    10:00 +2°C° 0 mm 6 mps 734 mmHg 71%
    11:00 +2°C° 0.1 mm 6 mps 734 mmHg 69%
    12:00 +2°C° 0.1 mm 6 mps 734 mmHg 68%
    13:00 +3°C° 0.1 mm 6 mps 734 mmHg 66%
    14:00 +2°C° 0 mm 6 mps 733 mmHg 69%
    15:00 +2°C° 0 mm 6 mps 733 mmHg 72%
    16:00 +1°C° 0 mm 5 mps 733 mmHg 75%
    17:00 +1°C° 0.2 mm 6 mps 733 mmHg 76%
    18:00 +1°C° 0.2 mm 6 mps 733 mmHg 77%
    19:00 0°C° 0.2 mm 7 mps 733 mmHg 79%
    20:00 -1°C° 0.4 mm 6 mps 733 mmHg 79%
    21:00 -1°C° 0.4 mm 6 mps 733 mmHg 80%
    22:00 -1°C° 0.4 mm 6 mps 734 mmHg 80%
    23:00 -1°C° 0 mm 6 mps 734 mmHg 82%

    20 November, Monday

    Time Temperature Precipitation Wind Pressure Humidity
    00:00 -2°C° 0 mm 6 mps 734 mmHg 83%
    01:00 -2°C° 0 mm 6 mps 734 mmHg 85%
    02:00 -2°C° 0.1 mm 6 mps 734 mmHg 85%
    03:00 -2°C° 0.1 mm 6 mps 734 mmHg 85%
    04:00 -2°C° 0.1 mm 6 mps 734 mmHg 85%
    05:00 -2°C° 0.6 mm 7 mps 734 mmHg 85%
    06:00 -2°C° 0.6 mm 7 mps 735 mmHg 84%
    07:00 -2°C° 0.6 mm 8 mps 735 mmHg 84%
    08:00 -1°C° 0.1 mm 8 mps 735 mmHg 83%
    09:00 -1°C° 0.1 mm 7 mps 736 mmHg 82%
    10:00 -1°C° 0.1 mm 7 mps 736 mmHg 81%
    11:00 +1°C° 0.1 mm 6 mps 736 mmHg 81%
    12:00 +1°C° 0.1 mm 6 mps 736 mmHg 80%
    13:00 +1°C° 0.1 mm 6 mps 737 mmHg 80%
    14:00 +1°C° 0.1 mm 5 mps 737 mmHg 81%
    15:00 +1°C° 0.1 mm 4 mps 737 mmHg 83%
    16:00 +1°C° 0.1 mm 3 mps 737 mmHg 84%
    17:00 +1°C° 0.1 mm 3 mps 737 mmHg 86%
    18:00 +1°C° 0.1 mm 3 mps 737 mmHg 88%
    19:00 0°C° 0.1 mm 3 mps 737 mmHg 90%
    20:00 +1°C° 0.2 mm 3 mps 736 mmHg 90%
    21:00 +1°C° 0.2 mm 3 mps 736 mmHg 90%
    22:00 0°C° 0.2 mm 4 mps 736 mmHg 90%
    23:00 0°C° 0.4 mm 4 mps 735 mmHg 90%

    21 November, Tuesday

    Time Temperature Precipitation Wind Pressure Humidity
    00:00 0°C° 0.4 mm 4 mps 734 mmHg 90%
    01:00 0°C° 0.4 mm 4 mps 733 mmHg 89%
    02:00 0°C° 0.7 mm 4 mps 733 mmHg 89%
    03:00 +1°C° 0.7 mm 5 mps 732 mmHg 90%
    04:00 +1°C° 0.7 mm 5 mps 731 mmHg 90%
    05:00 +1°C° 0.9 mm 6 mps 731 mmHg 91%
    06:00 +2°C° 0.9 mm 6 mps 730 mmHg 91%
    07:00 +2°C° 0.9 mm 7 mps 730 mmHg 92%
    08:00 +3°C° 0.8 mm 6 mps 730 mmHg 92%
    09:00 +3°C° 0.8 mm 6 mps 730 mmHg 92%
    10:00 +3°C° 0.8 mm 6 mps 730 mmHg 93%
    11:00 +3°C° 0.3 mm 6 mps 731 mmHg 93%
    12:00 +3°C° 0.3 mm 5 mps 731 mmHg 92%
    13:00 +3°C° 0.3 mm 5 mps 732 mmHg 92%
    14:00 +4°C° 0.1 mm 4 mps 732 mmHg 92%
    15:00 +3°C° 0.1 mm 4 mps 733 mmHg 91%
    16:00 +3°C° 0.1 mm 3 mps 734 mmHg 91%
    17:00 +3°C° 0.1 mm 2 mps 734 mmHg 91%
    18:00 +3°C° 0.1 mm 2 mps 735 mmHg 91%
    19:00 +4°C° 0.1 mm 1 mps 735 mmHg 91%
    20:00 +3°C° 0 mm 1 mps 736 mmHg 91%
    21:00 +3°C° 0 mm 1 mps 736 mmHg 91%
    22:00 +2°C° 0 mm 0 mps 736 mmHg 91%
    23:00 +2°C° 0 mm 0 mps 736 mmHg 92%

    22 November, Wednesday

    Time Temperature Precipitation Wind Pressure Humidity
    00:00 +3°C° 0 mm 1 mps 736 mmHg 92%
    01:00 +3°C° 0 mm 1 mps 737 mmHg 92%
    02:00 +3°C° 0.1 mm 1 mps 736 mmHg 93%
    03:00 +3°C° 0.1 mm 1 mps 736 mmHg 93%
    04:00 +2°C° 0.1 mm 2 mps 736 mmHg 93%
    05:00 +3°C° 0.4 mm 2 mps 736 mmHg 94%
    06:00 +3°C° 0.4 mm 2 mps 736 mmHg 94%
    07:00 +4°C° 0.4 mm 2 mps 736 mmHg 95%
    08:00 +4°C° 0.3 mm 2 mps 736 mmHg 94%
    09:00 +4°C° 0.3 mm 3 mps 736 mmHg 94%
    10:00 +4°C° 0.3 mm 3 mps 737 mmHg 93%
    11:00 +5°C° 0.1 mm 3 mps 737 mmHg 91%
    12:00 +5°C° 0.1 mm 4 mps 737 mmHg 89%
    13:00 +6°C° 0.1 mm 4 mps 737 mmHg 88%
    14:00 +6°C° 0.3 mm 4 mps 737 mmHg 88%
    15:00 +6°C° 0.3 mm 4 mps 737 mmHg 89%
    16:00 +5°C° 0.3 mm 3 mps 738 mmHg 89%
    17:00 +5°C° 0.1 mm 3 mps 738 mmHg 89%
    18:00 +5°C° 0.1 mm 3 mps 738 mmHg 89%
    19:00 +5°C° 0.1 mm 3 mps 739 mmHg 89%
    20:00 +5°C° 0 mm 3 mps 739 mmHg 90%
    21:00 +5°C° 0 mm 3 mps 739 mmHg 90%
    22:00 +5°C° 0 mm 3 mps 740 mmHg 91%
    23:00 +5°C° 0 mm 2 mps 740 mmHg 91%
    Show more